User: anonymous   Login
Location: Unspecified
(0.0000°N, 0.0000°E)
Time: 21:55:04
(UTC+00:00)
Language:

Eutelsat IIF1 - Orbit

View from above orbital plane
View from above orbital plane
View from above satellite
View from above satellite

Ground track
Ground track

The orbit is defined by the following mean orbital elements,

1 20777U          26150.28951854 +.00000000 +00000-0 +00000-0 0 00002
2 20777  14.8930 358.0962 0003503 267.4974  87.4874  0.99349367    01
Epoch (UTC): 30 May 2026 06:56:54
Eccentricity: 0.0003503
inclination: 14.8930°
perigee height: 36032 km
apogee height: 36062 km
right ascension of ascending node: 358.0962°
argument of perigee: 267.4974°
revolutions per day: 0.99349367
mean anomaly at epoch: 87.4874°

The dashed part of the orbit path shows where the satellite is in the earth's shadow,  

DLR